N5AZG Weather Reports


time (UTC)temp
C
wind
direction
speed
KPH
gust
KPH
rain 1hr
cm
rain 24hr
cm
rain mn
cm
humidity
%
barometer
mb
20260510120054 21 170 0.0 4.8 0.00 0.28 0.00 87 1012.4
20260510114604 21 205 3.2 6.4 0.00 0.28 0.00 87 1012.3
20260510113056 21 0 1.6 8.0 0.00 0.28 0.00 86 1012.2
20260510111555 21 0 0.0 9.7 0.00 0.28 0.00 85 1012.0
20260510110058 21 158 1.6 8.0 0.00 0.28 0.00 85 1011.9
20260510104607 22 169 3.2 8.0 0.00 0.28 0.00 84 1011.7
20260510103053 21 181 4.8 14.5 0.00 0.28 0.00 84 1011.3
20260510101551 21 184 3.2 8.0 0.00 0.28 0.00 85 1011.4
20260510100058 21 200 1.6 6.4 0.00 0.28 0.00 85 1011.5
20260510094555 21 0 3.2 12.9 0.00 0.28 0.00 85 1011.5
20260510093058 21 150 1.6 8.0 0.00 0.28 0.00 85 1011.4
20260510091600 21 147 1.6 8.0 0.00 0.28 0.00 85 1011.4
20260510090054 21 155 0.0 3.2 0.00 0.28 0.00 85 1011.5
20260510084558 21 0 0.0 6.4 0.00 0.28 0.00 84 1011.6
20260510083052 21 0 0.0 3.2 0.00 0.28 0.00 83 1011.8
20260510081554 22 0 0.0 1.6 0.00 0.28 0.00 82 1011.8
20260510080051 22 127 1.6 6.4 0.00 0.28 0.00 81 1012.1
20260510074616 22 0 0.0 3.2 0.00 0.28 0.00 80 1012.0
20260510073054 22 0 1.6 4.8 0.00 0.28 0.00 79 1011.7
20260510071559 22 197 0.0 6.4 0.00 0.28 0.00 78 1011.9
20260510070053 22 131 1.6 9.7 0.00 0.28 0.00 78 1011.9
20260510064607 22 117 0.0 4.8 0.00 0.28 0.00 77 1011.8
20260510063101 23 0 1.6 6.4 0.00 0.28 0.00 76 1011.8
20260510061553 23 166 0.0 4.8 0.00 0.28 0.00 76 1011.8
20260510060058 23 96 1.6 8.0 0.00 0.28 0.00 75 1011.8
20260510054553 23 140 0.0 4.8 0.00 0.28 0.00 75 1011.6
20260510053054 23 0 0.0 3.2 0.00 0.28 0.00 76 1011.7
20260510051601 23 115 0.0 3.2 0.00 0.28 0.00 76 1011.8
20260510050053 24 0 0.0 1.6 0.00 0.28 0.00 77 1011.7
20260510044556 24 0 0.0 3.2 0.00 0.28 0.28 75 1011.6
20260510043100 25 120 0.0 6.4 0.00 0.28 0.28 75 1011.7
20260510041608 25 0 0.0 4.8 0.00 0.28 0.28 75 1011.7
20260510040052 25 0 0.0 3.2 0.00 0.28 0.28 76 1011.5
20260510034553 25 0 0.0 3.2 0.00 0.28 0.28 75 1011.4
20260510033056 25 69 0.0 3.2 0.00 0.28 0.28 78 1011.2
20260510031557 25 0 0.0 0.0 0.00 0.28 0.28 77 1011.1
20260510030052 26 0 0.0 4.8 0.00 0.28 0.28 75 1011.0
20260510024601 26 101 1.6 9.7 0.00 0.28 0.28 74 1010.6
20260510023056 27 159 1.6 8.0 0.00 0.28 0.28 75 1010.3
20260510021558 27 116 0.0 6.4 0.00 0.28 0.28 74 1010.2
20260510020109 27 121 0.0 4.8 0.00 0.28 0.28 73 1010.1
20260510014606 28 189 1.6 9.7 0.00 0.28 0.28 71 1009.9
20260510013108 28 0 0.0 4.8 0.00 0.28 0.28 69 1009.8
20260510011557 28 0 0.0 3.2 0.00 0.28 0.28 68 1009.5
20260510010110 28 137 0.0 6.4 0.00 0.28 0.28 67 1009.5
20260510004600 29 70 1.6 9.7 0.00 0.28 0.28 66 1009.5
20260510003059 29 0 1.6 8.0 0.00 0.28 0.28 65 1009.5
20260510001550 30 65 1.6 8.0 0.00 0.28 0.28 64 1009.4
20260510000106 30 88 3.2 8.0 0.00 0.28 0.28 62 1009.2
20260509234604 30 125 1.6 8.0 0.00 0.28 0.28 60 1009.0
20260509233055 30 122 1.6 9.7 0.00 0.28 0.28 59 1008.9
20260509231557 30 123 1.6 6.4 0.00 0.28 0.28 60 1008.9
20260509230054 30 111 1.6 8.0 0.00 0.28 0.28 61 1009.0
20260509224555 30 64 0.0 4.8 0.00 0.28 0.28 59 1008.9
20260509223053 30 66 0.0 3.2 0.00 0.28 0.28 55 1009.1
20260509221611 30 0 0.0 4.8 0.00 0.28 0.28 54 1009.0
20260509220105 29 0 0.0 6.4 0.00 0.28 0.28 52 1008.8
20260509214554 29 85 1.6 11.3 0.00 0.28 0.28 52 1008.9
20260509213053 28 98 1.6 9.7 0.00 0.28 0.28 57 1009.3
20260509211552 28 127 0.0 4.8 0.00 0.28 0.28 59 1009.5
20260509210103 27 179 3.2 11.3 0.00 0.28 0.28 62 1009.7
20260509204559 26 98 4.8 12.9 0.10 0.28 0.28 76 1009.6
20260509203059 22 218 1.6 11.3 0.28 0.28 0.28 94 1009.4
20260509201553 21 205 1.6 16.1 0.28 0.28 0.28 93 1009.8
20260509200104 21 160 0.0 6.4 0.28 0.28 0.28 91 1010.5
20260509194558 25 0 1.6 11.3 0.18 0.18 0.18 81 1010.5
20260509193126 31 262 1.6 6.4 0.00 0.00 0.00 60 1010.2
20260509191615 32 143 0.0 9.7 0.00 0.00 0.00 60 1010.2
20260509190110 31 106 3.2 9.7 0.00 0.00 0.00 61 1010.3
20260509184558 32 148 1.6 8.0 0.00 0.00 0.00 62 1010.4
20260509183059 32 164 4.8 9.7 0.00 0.00 0.00 61 1010.7
20260509181554 32 162 3.2 8.0 0.00 0.00 0.00 62 1010.9
20260509180055 31 27 1.6 6.4 0.00 0.00 0.00 62 1011.0
20260509174558 30 160 3.2 9.7 0.00 0.00 0.00 67 1011.2
20260509173108 30 117 4.8 11.3 0.00 0.00 0.00 67 1011.5
20260509171618 30 0 1.6 11.3 0.00 0.00 0.00 69 1011.7
20260509170055 29 224 1.6 14.5 0.00 0.00 0.00 72 1011.5
20260509164557 28 174 6.4 12.9 0.00 0.00 0.00 72 1011.6
20260509163104 28 211 4.8 12.9 0.00 0.00 0.00 72 1011.6
20260509161558 28 221 1.6 11.3 0.00 0.00 0.00 75 1011.6
20260509160055 27 182 1.6 9.7 0.00 0.00 0.00 77 1011.6
20260509154558 26 174 3.2 12.9 0.00 0.00 0.00 82 1011.6
20260509153103 26 197 3.2 11.3 0.00 0.00 0.00 86 1011.5
20260509151607 24 143 3.2 11.3 0.00 0.00 0.00 91 1011.9
20260509150051 23 132 3.2 9.7 0.00 0.00 0.00 94 1011.7
20260509144557 23 70 0.0 4.8 0.00 0.00 0.00 95 1011.7
20260509143057 22 0 1.6 8.0 0.00 0.00 0.00 95 1011.5
20260509141557 22 167 0.0 9.7 0.00 0.00 0.00 95 1011.2
20260509140104 22 201 3.2 9.7 0.00 0.00 0.00 95 1011.1
20260509134601 22 0 0.0 0.0 0.00 0.00 0.00 95 1011.2
20260509133058 22 0 0.0 0.0 0.00 0.00 0.00 95 1011.6
20260509131620 22 0 0.0 0.0 0.00 0.00 0.00 95 1011.5
20260509130132 22 0 0.0 0.0 0.00 0.00 0.00 95 1011.3
20260509124557 22 0 0.0 0.0 0.00 0.00 0.00 95 1011.1
20260509123103 22 0 0.0 0.0 0.00 0.00 0.00 95 1010.9
20260509121559 22 0 0.0 0.0 0.00 0.00 0.00 95 1011.2